International Falls, MN

6:52 AM CDT on March 23, 2017 (GMT -0500)
Falls International

Weather History for KINL - December, 2013

Change the Weather History Date:

Friday, December 13, 2013

  Actual Average Record
Temperature  
Mean Temperature -10 °F 10 °F  
Max Temperature -7 °F 20 °F 45 °F (1913)
Min Temperature -13 °F 1 °F -33 °F (2010)
Degree Days  
Heating Degree Days 75 55  
Month to date heating degree days 868 673  
Since 1 July heating degree days 3226 3134  
Cooling Degree Days 0 0  
Month to date cooling degree days 0 0  
Year to date cooling degree days 224 192  
Moisture  
Dew Point -18 °F    
Average Humidity 62    
Maximum Humidity 72    
Minimum Humidity 52    
Precipitation  
Precipitation 0.00 in 0.02 in 0.43 in (1995)
Month to date precipitation 1.00 0.36  
Year to date precipitation 31.40 23.77  
Snow  
Snow 0.00 in 0.50 in 7.10 in (1991)
Month to date snowfall 18.0 6.3  
Since 1 July snowfall 28.9 22.3  
Snow Depth 11.00 in    
Sea Level Pressure  
Sea Level Pressure 30.45 in    
Wind  
Wind Speed 4 mph (NE)    
Max Wind Speed 9 mph    
Max Gust Speed 12 mph    
Visibility 10 miles    
Events      
T = Trace of Precipitation, MM = Missing Value Source: NWS Daily Summary

Daily Weather History Graph

Daily Weather History Graph

Search for Another Location

Airport or City:

Trip Planner

Search our weather history database for the weather conditions in past years. The results will help you decide how hot, cold, wet, or windy it might be!

Date:

Astronomy

Dec. 13, 2013 Rise Set
Actual Time 7:57 AM CST 4:18 PM CST
Civil Twilight 7:20 AM CST 4:54 PM CST
Nautical Twilight 6:40 AM CST 5:35 PM CST
Astronomical Twilight 6:02 AM CST 6:13 PM CST
Moon 2:12 PM CST (12/13) 4:08 AM CST (12/13)
Length of Visible Light 9h 34m
Length of Day
8h 20m
Waxing Gibbous, 88% of the Moon is Illuminated
Dec 13
Waxing Gibbous
Dec 17
Full
Dec 25
Last Quarter
Jan 1
New
Jan 7
First Quarter

Hourly Weather History & Observations

Time (CST) Temp. Windchill Dew Point Humidity Pressure Visibility Wind Dir Wind Speed Gust Speed Precip Events Conditions
12:55 AM -8.0 °F -23.9 °F -17.0 °F 65% 30.35 in 10.0 mi North 8.1 mph - N/A   Partly Cloudy
1:55 AM -8.0 °F -19.2 °F -18.0 °F 61% 30.37 in 10.0 mi NNE 4.6 mph - N/A   Partly Cloudy
2:55 AM -9.0 °F -20.4 °F -18.0 °F 65% 30.38 in 10.0 mi North 4.6 mph - N/A   Overcast
3:36 AM -9.4 °F -25.6 °F -18.4 °F 65% 30.27 in 10.0 mi NNE 8.1 mph - N/A   Overcast
3:55 AM -9.0 °F -23.8 °F -18.9 °F 62% 30.38 in 10.0 mi NNE 6.9 mph - N/A   Overcast
4:07 AM -9.4 °F -22.7 °F -18.4 °F 65% 30.26 in 10.0 mi NNE 5.8 mph - N/A   Overcast
4:55 AM -9.9 °F -23.4 °F -18.9 °F 65% 30.39 in 10.0 mi NNE 5.8 mph - N/A   Overcast
5:55 AM -9.9 °F - -18.9 °F 65% 30.39 in 10.0 mi Calm Calm - N/A   Overcast
6:55 AM -11.0 °F - -18.9 °F 68% 30.42 in 10.0 mi Calm Calm - N/A   Scattered Clouds
7:55 AM -11.9 °F - -20.0 °F 67% 30.44 in 10.0 mi Calm Calm - N/A   Partly Cloudy
8:55 AM -11.9 °F -21.5 °F -18.9 °F 71% 30.46 in 10.0 mi ENE 3.5 mph - N/A   Clear
9:55 AM -11.0 °F -22.8 °F -18.9 °F 68% 30.48 in 10.0 mi NE 4.6 mph - N/A   Clear
10:55 AM -9.9 °F -24.9 °F -20.0 °F 61% 30.48 in 10.0 mi NE 6.9 mph - N/A   Clear
11:55 AM -9.0 °F -18.2 °F -20.0 °F 59% 30.48 in 10.0 mi NNE 3.5 mph - N/A   Clear
12:55 PM -8.0 °F -21.0 °F -20.0 °F 56% 30.48 in 10.0 mi NNE 5.8 mph - N/A   Clear
1:55 PM -8.0 °F -19.2 °F -20.0 °F 56% 30.47 in 10.0 mi Variable 4.6 mph - N/A   Overcast
2:55 PM -8.0 °F -19.2 °F -18.9 °F 59% 30.48 in 10.0 mi NNE 4.6 mph - N/A   Overcast
3:55 PM -9.0 °F -20.4 °F -18.9 °F 62% 30.49 in 10.0 mi NNE 4.6 mph - N/A   Scattered Clouds
4:55 PM -8.0 °F - -18.0 °F 61% 30.51 in 10.0 mi Calm Calm - N/A   Overcast
5:55 PM -9.0 °F - -17.0 °F 68% 30.52 in 10.0 mi Calm Calm - N/A   Overcast
6:55 PM -8.0 °F - -17.0 °F 65% 30.52 in 10.0 mi Calm Calm - N/A   Overcast
7:55 PM -7.1 °F - -17.0 °F 62% 30.53 in 10.0 mi Calm Calm - N/A   Overcast
8:55 PM -7.1 °F -21.4 °F -17.0 °F 62% 30.52 in 10.0 mi ENE 6.9 mph - N/A   Overcast
9:55 PM -7.1 °F -15.9 °F -16.1 °F 65% 30.53 in 10.0 mi ENE 3.5 mph - N/A   Overcast
10:55 PM -8.0 °F - -16.1 °F 68% 30.52 in 10.0 mi Calm Calm - N/A   Mostly Cloudy
11:55 PM -8.0 °F -19.2 °F -16.1 °F 68% 30.50 in 10.0 mi ENE 4.6 mph - N/A   Mostly Cloudy